Weather History for KICR - March, 2014

Change the Weather History Date:

Tuesday, March 4, 2014

  Actual Average Record
Temperature  
Mean Temperature 14 °F 32 °F  
Max Temperature 23 °F 43 °F 62 °F (2009)
Min Temperature 5 °F 22 °F -2 °F (2015)
Degree Days  
Heating Degree Days 51 33  
Month to date heating degree days 244 133  
Since 1 July heating degree days 5577 5142  
Cooling Degree Days 0 0  
Month to date cooling degree days 0 0  
Year to date cooling degree days 0 0  
Moisture  
Dew Point 9 °F    
Average Humidity 75    
Maximum Humidity 88    
Minimum Humidity 62    
Precipitation  
Precipitation 0.00 in 0.01 in 0.01 in (2012)
Month to date precipitation 0.01 0.05  
Year to date precipitation 0.09 0.81  
Sea Level Pressure  
Sea Level Pressure 30.11 in    
Wind  
Wind Speed 8 mph (NE)    
Max Wind Speed 14 mph    
Max Gust Speed 17 mph    
Visibility 10 miles    
Events      
T = Trace of Precipitation, MM = Missing Value Source: NWS Daily Summary

Daily Weather History Graph

Daily Weather History Graph

Search for Another Location

Airport or City:

Trip Planner

Search our weather history database for the weather conditions in past years. The results will help you decide how hot, cold, wet, or windy it might be!

Date:

Astronomy

Mar. 04, 2014 Rise Set
Actual Time 7:10 AM CST 6:32 PM CST
Civil Twilight 6:42 AM CST 7:00 PM CST
Nautical Twilight 6:09 AM CST 7:33 PM CST
Astronomical Twilight 5:35 AM CST 8:07 PM CST
Moon 8:50 AM CST (3/4) 10:49 PM CST (3/4)
Length of Visible Light 12h 18m
Length of Day
11h 21m
Waxing Crescent, 15% of the Moon is Illuminated
Mar 4
Waxing Crescent
Mar 8
First Quarter
Mar 16
Full
Mar 23
Last Quarter
Mar 30
New

Hourly Weather History & Observations

Time (CST) Temp. Windchill Dew Point Humidity Pressure Visibility Wind Dir Wind Speed Gust Speed Precip Events Conditions
12:53 AM 9.0 °F -2.2 °F 5.0 °F 84% 30.09 in 10.0 mi West 6.9 mph - N/A   Clear
1:53 AM 8.1 °F 1.4 °F 3.9 °F 83% 30.08 in 10.0 mi West 3.5 mph - N/A   Clear
2:53 AM 7.0 °F 0.1 °F 3.0 °F 84% 30.08 in 10.0 mi WSW 3.5 mph - N/A   Clear
3:53 AM 9.0 °F 2.4 °F 3.9 °F 80% 30.06 in 10.0 mi North 3.5 mph - N/A   Clear
4:53 AM 5.0 °F -2.1 °F 1.9 °F 87% 30.05 in 10.0 mi South 3.5 mph - N/A   Clear
5:53 AM 5.0 °F -2.1 °F 1.0 °F 84% 30.05 in 10.0 mi ESE 3.5 mph - N/A   Clear
6:53 AM 8.1 °F - 3.9 °F 83% 30.07 in 10.0 mi Calm Calm - N/A   Clear
7:53 AM 9.0 °F -5.1 °F 5.0 °F 84% 30.06 in 10.0 mi East 10.4 mph - N/A   Clear
8:53 AM 10.9 °F -3.4 °F 5.0 °F 77% 30.07 in 10.0 mi East 11.5 mph - N/A   Mostly Cloudy
9:53 AM 12.9 °F -0.2 °F 6.1 °F 74% 30.06 in 10.0 mi East 10.4 mph - N/A   Clear
10:53 AM 16.0 °F 7.4 °F 7.0 °F 68% 30.08 in 10.0 mi East 5.8 mph - N/A   Clear
11:53 AM 18.0 °F 6.9 °F 8.1 °F 65% 30.06 in 10.0 mi ENE 9.2 mph - N/A   Partly Cloudy
12:53 PM 19.9 °F 9.3 °F 10.0 °F 65% 30.06 in 10.0 mi NE 9.2 mph - N/A   Partly Cloudy
1:53 PM 21.0 °F 9.3 °F 10.9 °F 65% 30.06 in 10.0 mi NE 11.5 mph - N/A   Clear
2:53 PM 23.0 °F 11.7 °F 12.0 °F 63% 30.06 in 10.0 mi NE 11.5 mph - N/A   Clear
3:53 PM 21.9 °F 11.0 °F 12.0 °F 66% 30.07 in 10.0 mi NE 10.4 mph - N/A   Partly Cloudy
4:44 PM 21.9 °F 13.4 °F 12.0 °F 66% 30.00 in 10.0 mi East 6.9 mph - N/A   Mostly Cloudy
4:53 PM 21.0 °F 10.6 °F 12.0 °F 68% 30.10 in 10.0 mi ENE 9.2 mph - N/A   Overcast
5:53 PM 21.0 °F 10.6 °F 12.0 °F 68% 30.13 in 10.0 mi NE 9.2 mph - N/A   Overcast
6:53 PM 19.9 °F 11.1 °F 12.9 °F 74% 30.16 in 10.0 mi North 6.9 mph - N/A   Overcast
7:53 PM 19.9 °F 8.6 °F 12.9 °F 74% 30.18 in 10.0 mi North 10.4 mph - N/A   Overcast
8:53 PM 19.0 °F 6.8 °F 14.0 °F 81% 30.21 in 7.0 mi North 11.5 mph - N/A   Overcast
9:53 PM 18.0 °F 6.9 °F 14.0 °F 84% 30.23 in 9.0 mi NNE 9.2 mph - N/A   Overcast
10:25 PM 18.0 °F 6.1 °F 12.9 °F 81% 30.13 in 10.0 mi North 10.4 mph - N/A   Overcast
10:39 PM 18.0 °F 6.1 °F 12.9 °F 81% 30.14 in 10.0 mi NNE 10.4 mph - N/A   Overcast
10:53 PM 17.1 °F 5.8 °F 12.9 °F 84% 30.25 in 10.0 mi NNE 9.2 mph - N/A   Overcast
11:53 PM 16.0 °F 7.4 °F 12.9 °F 88% 30.28 in 8.0 mi NNE 5.8 mph - N/A   Overcast